Weather History for KWWR - October, 2013

Change the Weather History Date:

Thursday, October 10, 2013

  Actual Average (KGAG) Record (KGAG)
Temperature  
Mean Temperature 71 °F -  
Max Temperature 82 °F 73 °F 94 °F (1965)
Min Temperature 60 °F 43 °F 30 °F (1993)
Cooling Degree Days 6    
Growing Degree Days 21 (Base 50)    
Moisture  
Dew Point 52 °F    
Average Humidity 52    
Maximum Humidity 72    
Minimum Humidity 35    
Precipitation  
Precipitation 0.00 in - - ()
Sea Level Pressure  
Sea Level Pressure 29.89 in    
Wind  
Wind Speed 20 mph (South)    
Max Wind Speed 32 mph    
Max Gust Speed 40 mph    
Visibility 10 miles    
Events      
Averages and records for this station are not official NWS values.
T = Trace of Precipitation, MM = Missing Value Source: NWS Daily Summary

Daily Weather History Graph

Daily Weather History Graph

Search for Another Location

Airport or City:

Trip Planner

Search our weather history database for the weather conditions in past years. The results will help you decide how hot, cold, wet, or windy it might be!

Date:

Astronomy

Oct. 10, 2013 Rise Set
Actual Time 7:41 AM CDT 7:08 PM CDT
Civil Twilight 7:15 AM CDT 7:34 PM CDT
Nautical Twilight 6:45 AM CDT 8:03 PM CDT
Astronomical Twilight 6:15 AM CDT 8:33 PM CDT
Moon 1:28 PM CDT (10/10) 11:54 PM CDT (10/10)
Length of Visible Light 12h 18m
Length of Day
11h 27m
Waxing Crescent, 36% of the Moon is Illuminated
Oct 10
Waxing Crescent
Oct 11
First Quarter
Oct 18
Full
Oct 26
Last Quarter
Nov 3
New

Hourly Weather History & Observations

Time (CDT) Temp. Heat Index Dew Point Humidity Pressure Visibility Wind Dir Wind Speed Gust Speed Precip Events Conditions
12:15 AM 66.2 °F - 44.6 °F 46% 29.96 in 10.0 mi SSE 18.4 mph 24.2 mph N/A   Clear
12:35 AM 66.2 °F - 44.6 °F 46% 29.96 in 10.0 mi SSE 20.7 mph 27.6 mph N/A   Clear
12:55 AM 64.4 °F - 46.4 °F 52% 29.96 in 10.0 mi SSE 19.6 mph 27.6 mph N/A   Clear
1:15 AM 64.4 °F - 46.4 °F 52% 29.95 in 10.0 mi South 19.6 mph 28.8 mph N/A   Clear
1:35 AM 64.4 °F - 46.4 °F 52% 29.95 in 10.0 mi South 20.7 mph 28.8 mph N/A   Clear
1:55 AM 64.4 °F - 46.4 °F 52% 29.95 in 10.0 mi South 20.7 mph 28.8 mph N/A   Clear
2:15 AM 64.4 °F - 46.4 °F 52% 29.95 in 10.0 mi South 23.0 mph 31.1 mph N/A   Clear
2:35 AM 64.4 °F - 46.4 °F 52% 29.96 in 10.0 mi South 19.6 mph 32.2 mph N/A   Clear
2:55 AM 64.4 °F - 46.4 °F 52% 29.96 in 10.0 mi South 20.7 mph 27.6 mph N/A   Clear
3:15 AM 64.4 °F - 48.2 °F 56% 29.97 in 10.0 mi South 17.3 mph 26.5 mph N/A   Clear
3:35 AM 64.4 °F - 48.2 °F 56% 29.96 in 10.0 mi South 17.3 mph 25.3 mph N/A   Clear
3:55 AM 64.4 °F - 48.2 °F 56% 29.95 in 10.0 mi South 17.3 mph 24.2 mph N/A   Clear
4:15 AM 64.4 °F - 50.0 °F 59% 29.95 in 10.0 mi South 15.0 mph 24.2 mph N/A   Clear
4:35 AM 62.6 °F - 50.0 °F 63% 29.95 in 10.0 mi South 17.3 mph 21.9 mph N/A   Clear
4:55 AM 62.6 °F - 50.0 °F 63% 29.95 in 10.0 mi South 17.3 mph - N/A   Clear
5:15 AM 62.6 °F - 50.0 °F 63% 29.95 in 10.0 mi South 18.4 mph 25.3 mph N/A   Clear
5:35 AM 62.6 °F - 50.0 °F 63% 29.95 in 10.0 mi South 17.3 mph 23.0 mph N/A   Clear
5:55 AM 62.6 °F - 50.0 °F 63% 29.95 in 10.0 mi South 16.1 mph 20.7 mph N/A   Clear
6:15 AM 62.6 °F - 50.0 °F 63% 29.95 in 10.0 mi South 19.6 mph - N/A   Clear
6:35 AM 62.6 °F - 50.0 °F 63% 29.95 in 10.0 mi South 17.3 mph 20.7 mph N/A   Clear
6:55 AM 62.6 °F - 50.0 °F 63% 29.95 in 10.0 mi South 16.1 mph 24.2 mph N/A   Clear
7:15 AM 60.8 °F - 51.8 °F 72% 29.96 in 10.0 mi SSW 13.8 mph 20.7 mph N/A   Clear
7:35 AM 60.8 °F - 51.8 °F 72% 29.96 in 10.0 mi SSW 11.5 mph 19.6 mph N/A   Clear
7:55 AM 60.8 °F - 51.8 °F 72% 29.95 in 10.0 mi SSW 11.5 mph - N/A   Clear
8:15 AM 60.8 °F - 51.8 °F 72% 29.96 in 10.0 mi SSW 12.7 mph - N/A   Clear
8:35 AM 62.6 °F - 51.8 °F 68% 29.97 in 10.0 mi SSW 9.2 mph - N/A   Clear
8:55 AM 62.6 °F - 51.8 °F 68% 29.97 in 10.0 mi South 9.2 mph - N/A   Clear
9:15 AM 64.4 °F - 51.8 °F 64% 29.97 in 10.0 mi South 13.8 mph - N/A   Clear
9:35 AM 68.0 °F - 53.6 °F 60% 29.97 in 10.0 mi South 16.1 mph 19.6 mph N/A   Clear
9:55 AM 69.8 °F - 53.6 °F 56% 29.97 in 10.0 mi South 18.4 mph - N/A   Clear
10:15 AM 69.8 °F - 53.6 °F 56% 29.97 in 10.0 mi South 15.0 mph - N/A   Clear
10:35 AM 71.6 °F - 53.6 °F 53% 29.97 in 10.0 mi South 18.4 mph - N/A   Clear
10:55 AM 71.6 °F - 53.6 °F 53% 29.97 in 10.0 mi South 17.3 mph 21.9 mph N/A   Clear
11:15 AM 73.4 °F - 53.6 °F 50% 29.96 in 10.0 mi South 18.4 mph 23.0 mph N/A   Clear
11:35 AM 75.2 °F - 53.6 °F 47% 29.96 in 10.0 mi South 16.1 mph - N/A   Clear
11:55 AM 77.0 °F - 53.6 °F 44% 29.95 in 10.0 mi South 17.3 mph 23.0 mph N/A   Clear
12:15 PM 78.8 °F - 53.6 °F 42% 29.95 in 10.0 mi South 18.4 mph 21.9 mph N/A   Clear
12:35 PM 78.8 °F - 53.6 °F 42% 29.94 in 10.0 mi South 20.7 mph 27.6 mph N/A   Clear
12:55 PM 78.8 °F - 53.6 °F 42% 29.93 in 10.0 mi SSE 18.4 mph 25.3 mph N/A   Clear
1:15 PM 80.6 °F - 51.8 °F 37% 29.92 in 10.0 mi South 15.0 mph 25.3 mph N/A   Clear
1:35 PM 80.6 °F - 51.8 °F 37% 29.91 in 10.0 mi SSE 20.7 mph 26.5 mph N/A   Clear
1:55 PM 80.6 °F - 51.8 °F 37% 29.89 in 10.0 mi SSE 23.0 mph 28.8 mph N/A   Clear
2:15 PM 80.6 °F - 51.8 °F 37% 29.88 in 10.0 mi SSE 26.5 mph 29.9 mph N/A   Clear
2:35 PM 80.6 °F - 51.8 °F 37% 29.87 in 10.0 mi South 19.6 mph 29.9 mph N/A   Clear
2:55 PM 82.4 °F - 51.8 °F 35% 29.86 in 10.0 mi SSE 24.2 mph 32.2 mph N/A   Clear
3:15 PM 82.4 °F - 51.8 °F 35% 29.84 in 10.0 mi SSE 27.6 mph 33.4 mph N/A   Clear
3:35 PM 82.4 °F - 51.8 °F 35% 29.84 in 10.0 mi SSE 27.6 mph 36.8 mph N/A   Clear
3:55 PM 82.4 °F - 51.8 °F 35% 29.83 in 10.0 mi SSE 21.9 mph 29.9 mph N/A   Clear
4:15 PM 80.6 °F 80.3 °F 53.6 °F 39% 29.82 in 10.0 mi SSE 32.2 mph 36.8 mph N/A   Clear
4:35 PM 80.6 °F 80.3 °F 53.6 °F 39% 29.81 in 10.0 mi SSE 27.6 mph 33.4 mph N/A   Clear
4:55 PM 80.6 °F 80.3 °F 53.6 °F 39% 29.81 in 10.0 mi SSE 23.0 mph 33.4 mph N/A   Clear
5:15 PM 80.6 °F 80.3 °F 53.6 °F 39% 29.81 in 10.0 mi SSE 26.5 mph 38.0 mph N/A   Clear
5:35 PM 80.6 °F 80.3 °F 53.6 °F 39% 29.80 in 10.0 mi SSE 29.9 mph 38.0 mph N/A   Clear
5:55 PM 78.8 °F - 53.6 °F 42% 29.79 in 10.0 mi SSE 26.5 mph 35.7 mph N/A   Clear
6:15 PM 78.8 °F - 53.6 °F 42% 29.79 in 10.0 mi SSE 24.2 mph 33.4 mph N/A   Clear
6:35 PM 78.8 °F - 53.6 °F 42% 29.79 in 10.0 mi SSE 19.6 mph 36.8 mph N/A   Clear
6:55 PM 77.0 °F - 53.6 °F 44% 29.78 in 10.0 mi SSE 21.9 mph 29.9 mph N/A   Clear
7:15 PM 77.0 °F - 53.6 °F 44% 29.77 in 10.0 mi SSE 26.5 mph 36.8 mph N/A   Clear
7:35 PM 75.2 °F - 53.6 °F 47% 29.76 in 10.0 mi SSE 25.3 mph 36.8 mph N/A   Clear
7:55 PM 75.2 °F - 53.6 °F 47% 29.77 in 10.0 mi SSE 24.2 mph 31.1 mph N/A   Clear
8:15 PM 73.4 °F - 53.6 °F 50% 29.77 in 10.0 mi SSE 20.7 mph 29.9 mph N/A   Clear
8:35 PM 73.4 °F - 53.6 °F 50% 29.76 in 10.0 mi SE 24.2 mph 31.1 mph N/A   Clear
8:55 PM 71.6 °F - 55.4 °F 57% 29.75 in 10.0 mi SSE 25.3 mph 33.4 mph N/A   Clear
9:15 PM 71.6 °F - 55.4 °F 57% 29.74 in 10.0 mi SSE 25.3 mph 35.7 mph N/A   Clear
9:35 PM 71.6 °F - 55.4 °F 57% 29.74 in 10.0 mi SSE 27.6 mph 39.1 mph N/A   Clear
9:55 PM 71.6 °F - 55.4 °F 57% 29.77 in 10.0 mi SSE 21.9 mph 39.1 mph N/A   Clear
10:15 PM 69.8 °F - 55.4 °F 60% 29.76 in 10.0 mi SSE 25.3 mph 32.2 mph N/A   Clear
10:35 PM 69.8 °F - 55.4 °F 60% 29.75 in 10.0 mi SE 27.6 mph 36.8 mph N/A   Clear
10:55 PM 69.8 °F - 55.4 °F 60% 29.74 in 10.0 mi SSE 29.9 mph 38.0 mph N/A   Clear
11:15 PM 69.8 °F - 55.4 °F 60% 29.76 in 10.0 mi SSE 26.5 mph 40.3 mph N/A   Clear
11:35 PM 69.8 °F - 55.4 °F 60% 29.77 in 10.0 mi SSE 26.5 mph 35.7 mph N/A   Clear
11:55 PM 69.8 °F - 57.2 °F 64% 29.81 in 10.0 mi South 20.7 mph 33.4 mph N/A   Clear